When you browse on this site, cookies collect data to enhance your experience and personalize the content and advertising you see.
Visit our Privacy Policy to learn more. By continuing to use the site, you agree to this use of cookies and data.
  • In Österreich
  • Länderverzeichnis
  • Für 7 Tage
  • Wassertemperatur
  • Satellitenkarten
  • Wetterkarte
  • News
  • Widgets
  • user-avatar
    Anmelden

    Stündliche Wetter Sitnica

    Heute, 19 Juli, Freitag

    Zeit Temperatur Niederschläge Wind Luftdruck Luftfeuchtigkeit
    00:00 +13°C° 0 mm 3 m/S 747 mmHg 94%
    01:00 +13°C° 0 mm 3 m/S 747 mmHg 95%
    02:00 +13°C° 0 mm 3 m/S 748 mmHg 96%
    03:00 +12°C° 0 mm 3 m/S 748 mmHg 96%
    04:00 +12°C° 0 mm 3 m/S 748 mmHg 96%
    05:00 +13°C° 0 mm 2 m/S 748 mmHg 96%
    06:00 +13°C° 0 mm 3 m/S 748 mmHg 92%
    07:00 +16°C° 0 mm 3 m/S 749 mmHg 87%
    08:00 +18°C° 0 mm 3 m/S 749 mmHg 83%
    09:00 +19°C° 0.3 mm 3 m/S 749 mmHg 78%
    10:00 +21°C° 0.3 mm 4 m/S 749 mmHg 72%
    11:00 +22°C° 0.3 mm 4 m/S 749 mmHg 67%
    12:00 +22°C° 0.3 mm 4 m/S 749 mmHg 65%
    13:00 +23°C° 0.3 mm 4 m/S 749 mmHg 63%
    14:00 +24°C° 0.3 mm 3 m/S 749 mmHg 61%
    15:00 +24°C° 0.4 mm 3 m/S 749 mmHg 64%
    16:00 +24°C° 0.4 mm 3 m/S 749 mmHg 67%
    17:00 +24°C° 0.4 mm 3 m/S 749 mmHg 69%
    18:00 +21°C° 0.3 mm 2 m/S 749 mmHg 75%
    19:00 +19°C° 0.3 mm 2 m/S 750 mmHg 81%
    20:00 +19°C° 0.3 mm 1 m/S 750 mmHg 86%
    21:00 +18°C° 0 mm 1 m/S 750 mmHg 88%
    22:00 +16°C° 0 mm 2 m/S 750 mmHg 89%
    23:00 +15°C° 0 mm 2 m/S 751 mmHg 91%

    Morgen, 20 Juli, Samstag

    Zeit Temperatur Niederschläge Wind Luftdruck Luftfeuchtigkeit
    00:00 +15°C° 0 mm 2 m/S 751 mmHg 91%
    01:00 +14°C° 0 mm 2 m/S 751 mmHg 91%
    02:00 +14°C° 0 mm 2 m/S 751 mmHg 91%
    03:00 +14°C° 0 mm 1 m/S 751 mmHg 91%
    04:00 +14°C° 0 mm 1 m/S 751 mmHg 91%
    05:00 +13°C° 0 mm 1 m/S 752 mmHg 91%
    06:00 +15°C° 0 mm 1 m/S 752 mmHg 86%
    07:00 +18°C° 0 mm 1 m/S 752 mmHg 82%
    08:00 +20°C° 0 mm 1 m/S 752 mmHg 78%
    09:00 +21°C° 0 mm 1 m/S 753 mmHg 71%
    10:00 +23°C° 0 mm 1 m/S 753 mmHg 65%
    11:00 +24°C° 0 mm 1 m/S 753 mmHg 59%
    12:00 +25°C° 0 mm 1 m/S 753 mmHg 57%
    13:00 +25°C° 0 mm 1 m/S 753 mmHg 55%
    14:00 +26°C° 0 mm 2 m/S 752 mmHg 53%
    15:00 +25°C° 0 mm 1 m/S 753 mmHg 54%
    16:00 +25°C° 0 mm 1 m/S 753 mmHg 55%
    17:00 +25°C° 0 mm 1 m/S 753 mmHg 56%
    18:00 +24°C° 0 mm 1 m/S 753 mmHg 61%
    19:00 +22°C° 0 mm 1 m/S 753 mmHg 66%
    20:00 +20°C° 0 mm 1 m/S 753 mmHg 71%
    21:00 +19°C° 0 mm 1 m/S 753 mmHg 73%
    22:00 +18°C° 0 mm 1 m/S 753 mmHg 74%
    23:00 +18°C° 0 mm 1 m/S 753 mmHg 75%

    übermorgen, 21 Juli, Sonntag

    Zeit Temperatur Niederschläge Wind Luftdruck Luftfeuchtigkeit
    00:00 +16°C° 0 mm 1 m/S 753 mmHg 77%
    01:00 +16°C° 0 mm 1 m/S 753 mmHg 79%
    02:00 +15°C° 0 mm 1 m/S 754 mmHg 81%
    03:00 +15°C° 0 mm 1 m/S 754 mmHg 82%
    04:00 +15°C° 0 mm 1 m/S 754 mmHg 83%
    05:00 +15°C° 0 mm 1 m/S 754 mmHg 84%
    06:00 +18°C° 0 mm 1 m/S 754 mmHg 79%
    07:00 +20°C° 0 mm 1 m/S 754 mmHg 74%
    08:00 +22°C° 0 mm 1 m/S 754 mmHg 69%
    09:00 +23°C° 0 mm 1 m/S 754 mmHg 65%
    10:00 +25°C° 0 mm 1 m/S 754 mmHg 60%
    11:00 +26°C° 0 mm 1 m/S 754 mmHg 56%
    12:00 +27°C° 0 mm 1 m/S 753 mmHg 53%
    13:00 +27°C° 0 mm 1 m/S 753 mmHg 50%
    14:00 +28°C° 0 mm 1 m/S 752 mmHg 48%
    15:00 +28°C° 0 mm 1 m/S 752 mmHg 50%
    16:00 +28°C° 0 mm 1 m/S 752 mmHg 52%
    17:00 +28°C° 0 mm 1 m/S 752 mmHg 54%
    18:00 +26°C° 0.2 mm 1 m/S 752 mmHg 63%
    19:00 +24°C° 0.2 mm 2 m/S 751 mmHg 72%
    20:00 +23°C° 0.2 mm 2 m/S 751 mmHg 80%
    21:00 +21°C° 0.7 mm 2 m/S 751 mmHg 84%
    22:00 +20°C° 0.7 mm 3 m/S 751 mmHg 89%
    23:00 +20°C° 0.7 mm 3 m/S 751 mmHg 93%

    22 Juli, Montag

    Zeit Temperatur Niederschläge Wind Luftdruck Luftfeuchtigkeit
    00:00 +19°C° 0.5 mm 3 m/S 751 mmHg 94%
    01:00 +19°C° 0.5 mm 2 m/S 750 mmHg 95%
    02:00 +19°C° 0.5 mm 2 m/S 750 mmHg 96%
    03:00 +18°C° 0.1 mm 2 m/S 750 mmHg 96%
    04:00 +18°C° 0.1 mm 2 m/S 750 mmHg 96%
    05:00 +17°C° 0.1 mm 2 m/S 750 mmHg 96%
    06:00 +18°C° 0 mm 2 m/S 750 mmHg 94%
    07:00 +18°C° 0 mm 3 m/S 750 mmHg 92%
    08:00 +19°C° 0 mm 3 m/S 750 mmHg 91%
    09:00 +21°C° 0 mm 3 m/S 751 mmHg 83%
    10:00 +23°C° 0 mm 4 m/S 751 mmHg 76%
    11:00 +25°C° 0 mm 4 m/S 751 mmHg 69%
    12:00 +26°C° 0 mm 4 m/S 751 mmHg 66%
    13:00 +26°C° 0 mm 5 m/S 751 mmHg 63%
    14:00 +27°C° 0 mm 5 m/S 751 mmHg 60%
    15:00 +26°C° 0.4 mm 5 m/S 751 mmHg 64%
    16:00 +26°C° 0.4 mm 4 m/S 751 mmHg 69%
    17:00 +25°C° 0.4 mm 4 m/S 750 mmHg 74%
    18:00 +24°C° 0.2 mm 3 m/S 751 mmHg 79%
    19:00 +21°C° 0.2 mm 3 m/S 751 mmHg 84%
    20:00 +20°C° 0.2 mm 3 m/S 751 mmHg 89%
    21:00 +19°C° 0 mm 3 m/S 751 mmHg 91%
    22:00 +18°C° 0 mm 3 m/S 751 mmHg 92%
    23:00 +18°C° 0 mm 3 m/S 751 mmHg 94%

    23 Juli, Dienstag

    Zeit Temperatur Niederschläge Wind Luftdruck Luftfeuchtigkeit
    00:00 +17°C° 0 mm 3 m/S 751 mmHg 95%
    01:00 +17°C° 0 mm 3 m/S 750 mmHg 95%
    02:00 +17°C° 0 mm 3 m/S 750 mmHg 95%
    03:00 +16°C° 0 mm 3 m/S 750 mmHg 96%
    04:00 +15°C° 0 mm 4 m/S 750 mmHg 96%
    05:00 +15°C° 0 mm 4 m/S 750 mmHg 96%
    06:00 +15°C° 0 mm 4 m/S 750 mmHg 94%
    07:00 +17°C° 0 mm 4 m/S 750 mmHg 92%
    08:00 +17°C° 0 mm 4 m/S 750 mmHg 90%
    09:00 +18°C° 0 mm 4 m/S 750 mmHg 87%
    10:00 +19°C° 0 mm 4 m/S 751 mmHg 83%
    11:00 +20°C° 0 mm 4 m/S 751 mmHg 79%
    12:00 +21°C° 0.1 mm 5 m/S 750 mmHg 76%
    13:00 +21°C° 0.1 mm 5 m/S 750 mmHg 74%
    14:00 +22°C° 0.1 mm 5 m/S 750 mmHg 71%
    15:00 +22°C° 0 mm 5 m/S 750 mmHg 71%
    16:00 +23°C° 0 mm 5 m/S 750 mmHg 71%
    17:00 +23°C° 0 mm 5 m/S 750 mmHg 71%
    18:00 +21°C° 0.4 mm 4 m/S 750 mmHg 77%
    19:00 +20°C° 0.4 mm 4 m/S 750 mmHg 84%
    20:00 +19°C° 0.4 mm 3 m/S 750 mmHg 91%
    21:00 +18°C° 0 mm 3 m/S 750 mmHg 92%
    22:00 +17°C° 0 mm 2 m/S 750 mmHg 93%
    23:00 +16°C° 0 mm 2 m/S 750 mmHg 95%

    24 Juli, Mittwoch

    Zeit Temperatur Niederschläge Wind Luftdruck Luftfeuchtigkeit
    00:00 +16°C° 0 mm 2 m/S 750 mmHg 95%
    01:00 +16°C° 0 mm 2 m/S 750 mmHg 95%
    02:00 +16°C° 0 mm 2 m/S 750 mmHg 95%
    03:00 +16°C° 0 mm 2 m/S 750 mmHg 95%
    04:00 +15°C° 0 mm 2 m/S 750 mmHg 95%
    05:00 +15°C° 0 mm 2 m/S 750 mmHg 95%
    06:00 +17°C° 0 mm 2 m/S 750 mmHg 92%
    07:00 +18°C° 0 mm 3 m/S 750 mmHg 89%
    08:00 +19°C° 0 mm 3 m/S 750 mmHg 86%
    09:00 +20°C° 0.2 mm 3 m/S 750 mmHg 78%
    10:00 +21°C° 0.2 mm 4 m/S 750 mmHg 70%
    11:00 +22°C° 0.2 mm 4 m/S 749 mmHg 62%
    12:00 +23°C° 0 mm 5 m/S 749 mmHg 60%
    13:00 +23°C° 0 mm 5 m/S 749 mmHg 57%
    14:00 +24°C° 0 mm 6 m/S 749 mmHg 55%
    15:00 +23°C° 0 mm 5 m/S 749 mmHg 58%
    16:00 +22°C° 0 mm 5 m/S 749 mmHg 61%
    17:00 +22°C° 0 mm 5 m/S 749 mmHg 64%
    18:00 +20°C° 0 mm 4 m/S 749 mmHg 69%
    19:00 +19°C° 0 mm 4 m/S 749 mmHg 74%
    20:00 +17°C° 0 mm 3 m/S 749 mmHg 79%
    21:00 +17°C° 0 mm 3 m/S 749 mmHg 81%
    22:00 +16°C° 0 mm 2 m/S 749 mmHg 84%
    23:00 +15°C° 0 mm 2 m/S 749 mmHg 86%
    Mehr zeigen